Simultaneous Nadir Overpasses (SNOs) Predictions

Prediction of SNOs between METOP-A and TERRA Satellite Orbit:

Table of predicted SNOs for the next 14.0 days since TLE Epoch: 4/19/2013
Index Date (METOP-A) Time (METOP-A) Lat,Lon (METOP-A) SZA (METOP-A ) Date (TERRA) Time (TERRA) Lat,Lon (TERRA) SZA (TERRA ) Distance(km) Time Diff (sec)
1 04/20/2013 10:10:41 -81.29,-105.91 107.53 04/20/2013 10:11:17 -81.29,-105.73 107.49 3.00 36
2 04/20/2013 11:01:20 81.30, 62.19 72.56 04/20/2013 11:00:43 81.30, 62.04 72.53 2.52 37
3 04/23/2013 05:45:04 -81.29, -39.24 108.42 04/23/2013 05:45:31 -81.29, -39.34 108.42 1.57 27
4 04/23/2013 06:35:44 81.30, 128.46 71.62 04/23/2013 06:34:57 81.30, 128.41 71.59 0.93 47
5 04/26/2013 01:19:28 -81.29, 27.00 109.34 04/26/2013 01:19:45 -81.28, 26.94 109.35 1.40 17
6 04/26/2013 02:10:08 81.29,-165.30 70.70 04/26/2013 02:09:11 81.29,-165.35 70.66 1.34 57
7 04/28/2013 20:53:50 -81.29, 93.60 110.19 04/28/2013 20:53:57 -81.29, 93.46 110.21 2.54 7
8 04/28/2013 21:44:30 81.30, -98.70 69.85 04/28/2013 21:43:23 81.29, -98.86 69.79 2.88 67
9 05/01/2013 15:37:34 81.29, -7.81 68.92 05/01/2013 15:38:43 81.28, -7.77 68.96 0.66 69




NCC Satellite Simultaneous Nadir Overpasses (SNOs) Prediction Service
